Regional Weather Roundup
Issued by NWS

Home | Current Version | Previous Version | Graphics & Text | Print | Product List | Glossary On
Versions: 1 2 3 4 5 6 7 8 9 10 11 12 13 14 15 16 17 18 19 20 21 22 23 24 25 26 27 28 29 30 31 32 33 34 35 36 37 38 39 40 41 42 43 44 45 46 47 48 49 50
000
ASUS43 KIND 260659
RWRIN

WEATHER ROUNDUP FOR INDIANA
NATIONAL WEATHER SERVICE INDIANAPOLIS IN
300 AM EDT SAT JUL 26 2014

NOTE: "FAIR" INDICATES FEW OR NO CLOUDS BELOW 12,000 FEET WITH NO
SIGNIFICANT WEATHER AND/OR OBSTRUCTIONS TO VISIBILITY.

* - STATION DOES NOT REPORT WEATHER SUCH AS PRECIPITATION OR FOG.

+ - STATION NOT QUALITY CONTROLLED BY THE NATIONAL WEATHER SERVICE.
    USE DATA WITH CAUTION...ESPECIALLY DEWPOINT AND RELATIVE
    HUMIDITY OBSERVATIONS.

INZ001>003-010>013-019-020-260800-
NORTHWEST INDIANA

CITY           SKY/WX    TMP DP  RH WIND       PRES   REMARKS
VALPARAISO     CLOUDY    65  59  81 S3        29.92F

$$

LMZ046-743>745-260800-
SOUTHERN LAKE MICHIGAN

STATION/POSITION TIME  TEMP WIND        PRES
                       AIR  DIR/SP/G
                 (UTC) (F)  (DEG/KT/KT) (MB)
MICHIGAN CITY    0600   65  120/  4/  6   N/A

$$

INZ004-005-014>016-021>024-260800-
NORTH CENTRAL INDIANA

CITY           SKY/WX    TMP DP  RH WIND       PRES   REMARKS
GOSHEN         CLEAR     62  57  83 S3        29.94F
SOUTH BEND     CLEAR     64  57  78 SE5       29.93F

$$

INZ006>009-017-018-025>027-260800-
NORTHEAST INDIANA

CITY           SKY/WX    TMP DP  RH WIND       PRES   REMARKS
ANGOLA *+      CLEAR     57  57 100 CALM      29.95F
FORT WAYNE     MOCLDY    62  57  83 S3        29.96F

$$

INZ028-029-035-036-043>045-051>053-260800-
WEST CENTRAL INDIANA

CITY           SKY/WX    TMP DP  RH WIND       PRES   REMARKS
GREENCASTLE +  CLOUDY    64  61  88 S5        29.97F
LAFAYETTE      CLOUDY    68  59  73 S5        29.93F
TERRE HAUTE    CLOUDY    67  60  78 SE6       29.95F

$$

INZ030>032-037>040-046>048-054>057-064-065-260800-
CENTRAL INDIANA

CITY           SKY/WX    TMP DP  RH WIND       PRES   REMARKS
INDIANAPOLIS   CLOUDY    69  60  73 S8        29.95F
-EAGLE CREEK   CLOUDY    69  59  70 VRB3      29.96F
KOKOMO *+      CLOUDY    66  59  77 S7        29.94F
MT COMFORT *+  MOCLDY    66  66 100 S5        29.98F
SHELBYVILLE    CLOUDY    69  62  78 S6        29.97F

$$

INZ033-034-041-042-049-050-058-059-260800-
EAST CENTRAL INDIANA

CITY           SKY/WX    TMP DP  RH WIND       PRES   REMARKS
MUNCIE         CLOUDY    68  59  73 S7        29.97F

$$

INZ060-061-067>069-081>083-085>088-260800-
SOUTHWEST INDIANA

CITY           SKY/WX    TMP DP  RH WIND       PRES   REMARKS
EVANSVILLE     CLEAR     64  60  87 CALM      29.99F
HUNTINGBURG *+ CLEAR     63  57  82 SW3       30.00F

$$

INZ062-063-066-070>080-084-089>092-260800-
SOUTH CENTRAL AND SOUTHEAST INDIANA

CITY           SKY/WX    TMP DP  RH WIND       PRES   REMARKS
BLOOMINGTON    CLOUDY    66  61  84 S6        29.98F
SEYMOUR +      CLOUDY    61  54  77 CALM      29.99F

$$



USA.gov is the U.S. government's official web portal to all federal, state and local government web resources and services.